Location: Amarillo Post Office Jordan Station
(35.1907°N, 101.9342°W)
Time: 13:33:32
(UTC+00:00)

NOSS 3-2 (C) - Pass Details

Date: 24 January 2021
Orbit: 783 x 1429 km, 63.4° (Epoch: 03 March)

Event Time Altitude Azimuth Distance (km) Brightness Sun altitude
Rises 12:41:08 0° 210° (SSW) 3,270 6.1 -14.6°
Reaches altitude 10° 12:43:26 10° 211° (SSW) 2,370 5.4 -14.1°
Maximum altitude 12:48:51 88° 298° (WNW) 860 3.2 -13.0°
Drops below altitude 10° 12:54:58 10° 31° (NNE) 2,668 6.0 -11.8°
Sets 12:57:42 0° 32° (NNE) 3,711 6.8 -11.3°
